Location: Meriden
(44.0740°N, 93.3870°W)
Time: 22:46:10
(UTC-05:00)

Amateur Radio Satellites - All Passes

Search period start: 26 May 2015 22:16
Search period end: 27 May 2015 22:16
Location: Meriden, 44.0740°N, 93.3870°W

Satellite Date Start Highest point End Downlink Frequencies (MHz)
Time Altitude Azimuth
FUNcube-1 26 May 22:26:58 22:31:35 85° 258° (WSW) 22:36:10 145.935
AISAT 26 May 22:27:32 22:31:19 28° 67° (ENE) 22:35:10 437.250
AAUSAT CUBESAT 2 26 May 22:28:34 22:31:49 21° 268° (W) 22:34:58 437.432
50 SAT 26 May 22:29:01 22:32:24 27° 69° (ENE) 22:35:49 437.505
DOVE 4 26 May 22:33:43 22:37:03 17° 273° (W) 22:40:14 437.250
Cosmos 2504 26 May 22:37:18 22:44:17 53° 268° (W) 22:51:10 435.465 / 435.565
TIGRISAT 26 May 22:53:58 22:56:47 17° 90° (E) 22:59:40 435.000
DELFI C3 26 May 22:56:55 23:00:26 28° 265° (W) 23:03:56 145.870
HUMSAT D 26 May 23:03:37 23:07:57 71° 259° (W) 23:12:16 437.325/437.525
CUBEBUG 2 26 May 23:05:51 23:09:45 24° 268° (W) 23:13:34 437.445
ZACube-1 26 May 23:08:04 23:12:13 32° 265° (W) 23:16:19 437.345
UKube-1 26 May 23:10:03 23:14:20 59° 260° (W) 23:18:38 .
UNISAT 6 26 May 23:13:36 23:17:23 28° 94° (E) 23:21:08 437.425
DX 1 26 May 23:18:38 23:22:48 44° 261° (W) 23:27:01 434.975-435.025
QB50P1 26 May 23:19:02 23:21:21 15° 89° (E) 23:23:52 145.935-145.965
POLYITAN 1 26 May 23:20:46 23:23:17 16° 90° (E) 23:25:57 437.675
DANDE 26 May 23:21:32 23:27:43 24° 58° (ENE) 23:33:15 436.750
Oscar 11 26 May 23:23:37 23:25:45 13° 272° (W) 23:27:40 145.826/435.025
CUBEBUG 1 26 May 23:30:32 23:34:49 61° 73° (ENE) 23:39:10 437.445
VELOX 1 26 May 23:31:40 23:36:04 67° 259° (WSW) 23:40:32 145.980
ESTCUBE 1 26 May 23:33:38 23:38:06 76° 74° (ENE) 23:42:37 437.505/2401.250
GONETS M04 26 May 23:45:34 23:53:09 32° 66° (ENE) 00:00:51
ISS 26 May 23:46:25 23:49:10 26° 138° (SE) 23:51:57 145.825
NANOSAT C BR1 26 May 23:49:22 23:53:09 30° 96° (E) 23:56:56 145.865
CUSAT 1 26 May 23:54:14 00:01:20 45° 69° (ENE) 00:07:00 437.405
ANTELSAT 26 May 23:56:32 00:00:57 81° 102° (ESE) 00:05:16 437.575/2403.000
QB50P2 26 May 23:57:06 00:01:06 38° 97° (E) 00:05:06 145.880/145.840
50 SAT 27 May 00:03:43 00:07:06 25° 266° (W) 00:10:25 437.505
AISAT 27 May 00:03:52 00:07:50 30° 264° (W) 00:11:47 437.250
POPSAT HIP 1 27 May 00:09:18 00:13:30 50° 99° (E) 00:17:39 437.405
SPROUT 27 May 00:10:15 00:14:22 45° 71° (ENE) 00:18:33 437.525
DUCHIFAT 1 27 May 00:11:23 00:15:34 51° 99° (E) 00:19:43 145.980
TIGRISAT 27 May 00:29:37 00:33:52 47° 289° (WNW) 00:37:59 435.000
TISAT 1 27 May 00:34:06 00:38:17 61° 74° (ENE) 00:42:31 437.305
BUGSAT 1 27 May 00:35:11 00:39:28 66° 102° (ESE) 00:43:41 437.445
UNISAT 6 27 May 00:50:21 00:54:09 29° 292° (WNW) 00:57:51 437.425
QB50P1 27 May 00:53:25 00:57:37 53° 287° (WNW) 01:01:46 145.935-145.965
POLYITAN 1 27 May 00:55:22 00:59:33 50° 287° (WNW) 01:03:40 437.675
O/OREOS (USA 219) 27 May 00:56:06 00:59:31 21° 53° (NE) 01:03:02 437.305
PCSat 27 May 00:58:39 01:03:28 35° 112° (ESE) 01:08:23 145.827
DANDE 27 May 01:04:05 01:12:09 77° 263° (W) 01:18:28 436.750
CUBEBUG 1 27 May 01:09:25 01:11:40 13° 272° (W) 01:13:44 437.445
ESTCUBE 1 27 May 01:14:11 01:15:37 11° 273° (W) 01:16:47 437.505/2401.250
Cosmos 2499 27 May 01:14:31 01:19:03 18° 60° (ENE) 01:23:53 435.465 / 435.565
ITUPSAT 1 27 May 01:21:58 01:26:13 34° 68° (ENE) 01:30:32 437.325
ISS 27 May 01:22:17 01:25:27 47° 335° (NNW) 01:28:38 145.825
NANOSAT C BR1 27 May 01:25:18 01:28:54 26° 292° (WNW) 01:32:25 145.865
BEESAT 3 27 May 01:28:38 01:30:01 11° 32° (NNE) 01:31:30 437.485
BEESAT 27 May 01:29:31 01:33:57 41° 70° (ENE) 01:38:26 436.000
QB50P2 27 May 01:33:29 01:36:48 21° 294° (WNW) 01:39:59 145.880/145.840
ANTELSAT 27 May 01:35:33 01:37:08 12° 300° (WNW) 01:38:30 437.575/2403.000
CUSAT 1 27 May 01:37:21 01:43:48 34° 274° (W) 01:48:56 437.405
SWISSCUBE 27 May 01:37:49 01:42:25 53° 72° (ENE) 01:47:04 437.505
Oscar 19 27 May 01:38:44 01:42:03 18° 89° (E) 01:45:33 437.125/150
GONETS M04 27 May 01:42:01 01:50:39 61° 268° (W) 01:59:09
POPSAT HIP 1 27 May 01:46:11 01:49:01 17° 296° (WNW) 01:51:42 437.405
SPROUT 27 May 01:47:44 01:50:44 18° 269° (W) 01:53:36 437.525
DUCHIFAT 1 27 May 01:48:16 01:51:01 16° 296° (WNW) 01:53:37 145.980
BUGSAT 1 27 May 02:12:15 02:14:27 14° 298° (WNW) 02:16:28 437.445
TISAT 1 27 May 02:12:31 02:14:33 13° 272° (W) 02:16:23 437.305
BEESAT 2 27 May 02:16:07 02:19:17 21° 41° (NE) 02:22:28 435.950
Gurwin Techsat 1B 27 May 02:30:06 02:33:03 15° 88° (E) 02:36:15 435.225
O/OREOS (USA 219) 27 May 02:34:56 02:39:11 44° 252° (WSW) 02:43:26 437.305
STARS 27 May 02:40:00 02:43:35 25° 67° (ENE) 02:47:17 437.465
PCSat 27 May 02:41:48 02:46:52 39° 310° (NW) 02:51:57 145.827
VERMONT LUNAR 27 May 02:46:13 02:48:49 22° 160° (SSE) 02:51:25 437.305
DANDE 27 May 02:49:49 02:53:50 15° 284° (WNW) 02:57:04 436.750
ISS 27 May 02:59:48 03:02:24 21° 355° (N) 03:05:01 145.825
ITUPSAT 1 27 May 03:00:05 03:04:11 28° 266° (W) 03:08:14 437.325
BEESAT 3 27 May 03:04:47 03:08:52 63° 52° (NE) 03:12:52 437.485
Cosmos 2499 27 May 03:06:11 03:13:17 83° 263° (W) 03:20:27 435.465 / 435.565
BEESAT 27 May 03:08:11 03:11:59 23° 267° (W) 03:15:43 436.000
KKS-1 27 May 03:11:03 03:15:32 81° 75° (ENE) 03:20:03 437.445
PHONESAT 2.4 27 May 03:15:09 03:17:10 15° 153° (SSE) 03:19:14 2401.200-2431.200
Oscar 19 27 May 03:16:49 03:21:55 61° 288° (WNW) 03:26:58 437.125/150
SWISSCUBE 27 May 03:17:23 03:20:39 18° 270° (W) 03:23:46 437.505
ITAMSAT 1 27 May 03:30:39 03:35:48 56° 100° (E) 03:40:56 435.822/435.867
SO-50 27 May 03:38:13 03:42:43 49° 119° (ESE) 03:47:25 436.795
GONETS M04 27 May 03:43:19 03:45:48 11° 287° (WNW) 03:47:34
AIST 2 27 May 03:43:20 03:47:21 40° 48° (NE) 03:51:19 435.215
BEESAT 2 27 May 03:53:39 03:57:39 50° 241° (WSW) 04:01:35 435.950
HORYU 2 27 May 03:55:00 03:57:26 15° 89° (E) 04:00:03 437.375
Gurwin Techsat 1B 27 May 04:08:22 04:13:41 73° 287° (WNW) 04:18:59 435.225
JAS-2 27 May 04:14:35 04:18:45 24° 93° (E) 04:23:04 435.910
STARS 27 May 04:15:50 04:19:55 34° 264° (W) 04:23:58 437.465
VERMONT LUNAR 27 May 04:22:34 04:25:38 42° 177° (S) 04:28:42 437.305
PCSat 27 May 04:31:04 04:31:57 10° 334° (NNW) 04:32:40 145.827
ISS 27 May 04:36:39 04:39:31 27° 15° (NNE) 04:42:24 145.825
MOZHAYETS 4 27 May 04:40:13 04:44:41 56° 73° (ENE) 04:49:11
BEESAT 3 27 May 04:44:19 04:46:23 13° 249° (WSW) 04:48:16 437.485
PHONESAT 2.4 27 May 04:51:32 04:54:46 37° 168° (SSE) 04:58:01 2401.200-2431.200
KKS-1 27 May 04:51:52 04:52:51 10° 274° (W) 04:53:33 437.445
Cosmos 2499 27 May 05:02:03 05:05:25 13° 281° (W) 05:08:20 435.465 / 435.565
AO-7 27 May 05:06:52 05:15:04 56° 102° (ESE) 05:23:16 29.400- 29.500
ITAMSAT 1 27 May 05:11:01 05:14:57 21° 297° (WNW) 05:18:45 435.822/435.867
SO-50 27 May 05:19:25 05:23:31 27° 319° (NW) 05:27:42 436.795
AIST 2 27 May 05:22:21 05:25:43 23° 246° (WSW) 05:28:58 435.215
HORYU 2 27 May 05:30:09 05:34:31 56° 287° (WNW) 05:38:50 437.375
Cosmos 2491 27 May 05:30:35 05:37:10 23° 60° (ENE) 05:44:00 435.465 / 435.565
Gurwin Techsat 1B 27 May 05:51:06 05:52:51 11° 304° (WNW) 05:54:19 435.225
JAS-2 27 May 05:59:16 06:04:09 41° 291° (WNW) 06:09:03 435.910
VERMONT LUNAR 27 May 05:59:37 06:02:33 33° 193° (SSW) 06:05:28 437.305
STRAND 1 27 May 06:03:47 06:07:13 19° 62° (ENE) 06:10:49 437.568
PRISM 27 May 06:05:11 06:07:43 17° 64° (ENE) 06:10:23 437.425
Cubesat XI-IV 27 May 06:07:13 06:08:25 11° 85° (E) 06:10:01 437.490
ISS 27 May 06:12:55 06:16:12 75° 212° (SSW) 06:19:27 145.825
CUBESAT XI-V 27 May 06:19:13 06:23:38 50° 72° (ENE) 06:28:08 437.345
MOZHAYETS 4 27 May 06:19:29 06:22:20 16° 271° (W) 06:25:01
M-CUBED/EXP-1 PRIME 27 May 06:23:38 06:26:32 19° 62° (ENE) 06:29:23 437.505
YUBILEINY 27 May 06:26:49 06:31:57 18° 78° (ENE) 06:37:32 435.215
PHONESAT 2.4 27 May 06:29:16 06:32:36 44° 185° (S) 06:35:55 2401.200-2431.200
AUBIESAT-1 27 May 06:31:36 06:34:34 20° 63° (ENE) 06:37:28 437.475
AO-7 27 May 07:00:06 07:07:38 38° 301° (WNW) 07:15:02 29.400- 29.500
CUTE-I 27 May 07:23:28 07:28:44 55° 100° (E) 07:34:01 437.470
Cosmos 2491 27 May 07:26:27 07:35:20 84° 264° (W) 07:44:08 435.465 / 435.565
RS-15 27 May 07:37:37 07:43:08 16° 99° (E) 07:49:30 29.354- 29.394
VERMONT LUNAR 27 May 07:37:55 07:39:12 12° 208° (SSW) 07:40:26 437.305
PRISM 27 May 07:38:54 07:42:52 47° 261° (W) 07:46:49 437.425
STRAND 1 27 May 07:40:58 07:46:00 61° 259° (WSW) 07:51:05 437.568
Cubesat XI-IV 27 May 07:44:04 07:49:28 84° 104° (ESE) 07:54:52 437.490
BRITE-PL 27 May 07:52:28 07:54:44 13° 83° (E) 07:57:17 437.365/2234.400
M-CUBED/EXP-1 PRIME 27 May 07:57:14 08:01:13 40° 256° (WSW) 08:04:55 437.505
AIST 1 27 May 07:57:24 08:01:39 49° 77° (ENE) 08:05:56
CUBESAT XI-V 27 May 07:58:14 08:01:26 18° 270° (W) 08:04:30 437.345
PCSat 27 May 08:03:34 08:04:38 11° 27° (NNE) 08:05:54 145.827
AUBIESAT-1 27 May 08:05:18 08:09:12 37° 256° (WSW) 08:12:49 437.475
PHONESAT 2.4 27 May 08:07:33 08:10:20 22° 201° (SSW) 08:13:06 2401.200-2431.200
YUBILEINY 27 May 08:18:51 08:27:39 86° 95° (E) 08:36:25 435.215
DOVE 4 27 May 08:52:52 08:56:13 18° 87° (E) 08:59:39 437.250
CUTE-I 27 May 09:04:21 09:08:29 22° 297° (WNW) 09:12:29 437.470
HO-68 27 May 09:15:50 09:22:13 35° 95° (E) 09:28:41 435.675
CANX-2 27 May 09:18:45 09:22:25 29° 95° (E) 09:26:07 2200.000
CUTE 1.7 + AOD 2 27 May 09:22:17 09:25:55 28° 95° (E) 09:29:36 437.475
ANTELSAT 27 May 09:23:47 09:24:56 11° 60° (ENE) 09:26:20 437.575/2403.000
Cosmos 2504 27 May 09:25:01 09:31:13 25° 84° (E) 09:37:24 435.465 / 435.565
Cosmos 2491 27 May 09:25:29 09:30:59 18° 283° (WNW) 09:35:59 435.465 / 435.565
Cubesat XI-IV 27 May 09:25:48 09:28:58 16° 301° (WNW) 09:31:54 437.490
BRITE-PL 27 May 09:28:27 09:34:11 88° 101° (E) 09:39:39 437.365/2234.400
GOMX 1 27 May 09:29:51 09:35:13 61° 99° (E) 09:40:17 467.674
AIST 1 27 May 09:36:16 09:38:57 16° 274° (W) 09:41:28
RS-15 27 May 09:42:52 09:53:39 73° 119° (ESE) 10:04:47 29.354- 29.394
SEEDS 27 May 09:44:15 09:48:12 40° 98° (E) 09:52:09 437.485
PCSat 27 May 09:44:34 09:49:41 41° 50° (NE) 09:54:48 145.827
TIGRISAT 27 May 09:53:57 09:57:22 21° 65° (ENE) 10:00:52 435.000
COMPASS 1 27 May 09:57:00 10:01:00 45° 98° (E) 10:04:59 437.405
CINEMA 3 27 May 10:05:18 10:09:50 42° 97° (E) 10:14:08 145.822/145.860
UWE-3 27 May 10:06:04 10:08:53 17° 89° (E) 10:11:48 435.000/436.395/437.385
AAUSAT CUBESAT 2 27 May 10:08:51 10:12:54 52° 99° (E) 10:16:57 437.432
QB50P1 27 May 10:13:40 10:16:00 15° 63° (ENE) 10:18:30 145.935-145.965
UNISAT 6 27 May 10:13:41 10:17:49 32° 69° (ENE) 10:21:58 437.425
FUNcube-1 27 May 10:15:25 10:18:03 16° 89° (E) 10:20:50 145.935
POLYITAN 1 27 May 10:15:36 10:18:09 16° 64° (ENE) 10:20:51 437.675
YUBILEINY 27 May 10:19:09 10:25:49 22° 300° (WNW) 10:32:08 435.215
SO-50 27 May 10:28:43 10:31:37 16° 31° (NNE) 10:34:39 436.795
DOVE 4 27 May 10:29:23 10:34:29 58° 287° (WNW) 10:39:16 437.250
DELFI C3 27 May 10:34:16 10:37:53 32° 96° (E) 10:41:32 145.870
NANOSAT C BR1 27 May 10:43:23 10:47:01 28° 68° (ENE) 10:50:45 145.865
HUMSAT D 27 May 10:47:28 10:50:05 16° 90° (E) 10:52:48 437.325/437.525
QB50P2 27 May 10:51:22 10:55:16 35° 70° (ENE) 10:59:13 145.880/145.840
CUBEBUG 2 27 May 10:54:43 10:59:12 70° 100° (E) 11:03:30 437.445
CANX-2 27 May 10:54:44 10:58:17 26° 292° (WNW) 11:01:46 2200.000
ZACube-1 27 May 10:55:02 10:59:11 44° 97° (E) 11:03:15 437.345
ANTELSAT 27 May 10:56:22 11:01:05 85° 73° (ENE) 11:05:45 437.575/2403.000
UKube-1 27 May 10:56:46 10:59:59 20° 93° (E) 11:03:16 .
CUTE 1.7 + AOD 2 27 May 10:58:13 11:01:47 26° 292° (WNW) 11:05:17 437.475
POPSAT HIP 1 27 May 11:03:19 11:07:24 45° 72° (ENE) 11:11:33 437.405
HO-68 27 May 11:03:20 11:10:11 49° 294° (WNW) 11:16:57 435.675
DUCHIFAT 1 27 May 11:04:58 11:09:03 46° 72° (ENE) 11:13:11 145.980
DX 1 27 May 11:05:39 11:09:22 27° 95° (E) 11:13:10 434.975-435.025
Oscar 11 27 May 11:06:38 11:10:58 79° 285° (WNW) 11:15:15 145.826/435.025
BRITE-PL 27 May 11:08:33 11:11:56 16° 301° (WNW) 11:15:03 437.365/2234.400
GOMX 1 27 May 11:08:53 11:12:51 21° 298° (WNW) 11:16:33 467.674
Cosmos 2504 27 May 11:15:48 11:24:07 69° 281° (WNW) 11:31:51 435.465 / 435.565
SEEDS 27 May 11:20:44 11:23:46 19° 294° (WNW) 11:26:41 437.485
CUBEBUG 1 27 May 11:20:55 11:21:27 10° 86° (E) 11:22:17 437.445
VELOX 1 27 May 11:21:23 11:24:44 21° 92° (E) 11:28:10 145.980
ESTCUBE 1 27 May 11:26:18 11:28:42 14° 89° (E) 11:31:18 437.505/2401.250
BUGSAT 1 27 May 11:26:26 11:30:29 55° 73° (ENE) 11:34:38 437.445
PCSat 27 May 11:28:12 11:33:02 33° 249° (WSW) 11:37:47 145.827
TIGRISAT 27 May 11:29:18 11:33:50 46° 261° (W) 11:38:19 435.000
COMPASS 1 27 May 11:33:35 11:36:23 17° 295° (WNW) 11:39:03 437.405
50 SAT 27 May 11:38:10 11:41:40 32° 96° (E) 11:45:09 437.505
UWE-3 27 May 11:41:31 11:45:46 46° 288° (WNW) 11:49:51 435.000/436.395/437.385
CINEMA 3 27 May 11:43:02 11:46:46 22° 295° (WNW) 11:50:15 145.822/145.860
AAUSAT CUBESAT 2 27 May 11:45:41 11:48:09 15° 295° (WNW) 11:50:28 437.432
QB50P1 27 May 11:47:13 11:51:26 59° 259° (W) 11:55:43 145.935-145.965
POLYITAN 1 27 May 11:49:26 11:53:40 55° 260° (W) 11:57:56 437.675
UNISAT 6 27 May 11:50:31 11:54:37 28° 266° (W) 11:58:37 437.425
FUNcube-1 27 May 11:50:34 11:54:45 47° 288° (WNW) 11:58:48 145.935
AISAT 27 May 11:52:30 11:56:49 44° 99° (E) 12:01:08 437.250
RS-15 27 May 11:56:44 12:07:01 42° 326° (NW) 12:17:34 29.354- 29.394
SO-50 27 May 12:08:11 12:13:09 67° 52° (NE) 12:18:03 436.795
DELFI C3 27 May 12:09:44 12:12:51 21° 293° (WNW) 12:15:53 145.870
NANOSAT C BR1 27 May 12:19:07 12:22:50 28° 265° (W) 12:26:31 145.865
HUMSAT D 27 May 12:22:09 12:26:08 44° 288° (WNW) 12:30:02 437.325/437.525
QB50P2 27 May 12:27:51 12:31:17 22° 267° (W) 12:34:37 145.880/145.840
ZACube-1 27 May 12:32:09 12:35:15 19° 295° (WNW) 12:38:11 437.345
UKube-1 27 May 12:32:12 12:36:18 39° 290° (WNW) 12:40:20 .
DANDE 27 May 12:32:40 12:38:21 26° 82° (E) 12:44:56 436.750
CUBEBUG 2 27 May 12:33:05 12:35:20 13° 299° (WNW) 12:37:23 437.445
ANTELSAT 27 May 12:37:26 12:38:33 11° 274° (W) 12:39:22 437.575/2403.000
POPSAT HIP 1 27 May 12:40:38 12:43:34 17° 269° (W) 12:46:22 437.405
DX 1 27 May 12:41:45 12:45:38 30° 292° (WNW) 12:49:27 434.975-435.025
DUCHIFAT 1 27 May 12:42:17 12:45:09 17° 270° (W) 12:47:54 145.980
GONETS M04 27 May 12:48:57 12:56:28 34° 85° (E) 13:04:12
CUBEBUG 1 27 May 12:54:00 12:58:29 81° 285° (WNW) 13:02:55 437.445
HO-68 27 May 12:54:37 12:56:24 11° 314° (NW) 12:57:47 435.675
Oscar 19 27 May 12:56:37 13:01:05 31° 66° (ENE) 13:05:38 437.125/150
VELOX 1 27 May 12:57:16 13:01:29 41° 290° (WNW) 13:05:40 145.980
CUSAT 1 27 May 12:59:26 13:06:29 49° 91° (E) 13:14:25 437.405
ESTCUBE 1 27 May 13:01:33 13:06:02 60° 286° (WNW) 13:10:30 437.505/2401.250
BUGSAT 1 27 May 13:04:08 13:06:23 14° 271° (W) 13:08:29 437.445
50 SAT 27 May 13:13:17 13:16:13 20° 293° (WNW) 13:19:03 437.505
ITAMSAT 1 27 May 13:13:47 13:16:26 15° 59° (ENE) 13:19:18 435.822/435.867
Cosmos 2504 27 May 13:15:03 13:19:11 14° 304° (NW) 13:22:45 435.465 / 435.565
AISAT 27 May 13:29:46 13:33:08 20° 295° (WNW) 13:36:22 437.250
SPROUT 27 May 13:31:10 13:35:32 74° 102° (ESE) 13:39:51 437.525
SWISSCUBE 27 May 13:38:40 13:40:25 12° 87° (E) 13:42:26 437.505
SO-50 27 May 13:49:54 13:53:15 18° 249° (WSW) 13:56:23 436.795
Gurwin Techsat 1B 27 May 13:52:07 13:56:35 29° 66° (ENE) 14:01:09 435.225
TISAT 1 27 May 13:52:44 13:57:02 89° 284° (WNW) 14:01:17 437.305
Cosmos 2499 27 May 13:55:47 13:59:17 14° 79° (E) 14:03:12 435.465 / 435.565
DANDE 27 May 14:13:25 14:20:44 75° 283° (WNW) 14:29:18 436.750
RS-15 27 May 14:14:31 14:23:26 26° 359° (N) 14:32:40 29.354- 29.394
AO-7 27 May 14:18:03 14:23:45 22° 50° (NE) 14:29:44 29.400- 29.500
JAS-2 27 May 14:29:58 14:33:32 16° 61° (ENE) 14:37:09 435.910
Oscar 19 27 May 14:35:33 14:40:22 36° 264° (W) 14:45:09 437.125/150
CUSAT 1 27 May 14:42:11 14:49:22 42° 292° (WNW) 14:57:09 437.405
GONETS M04 27 May 14:44:18 14:52:59 57° 285° (WNW) 15:01:40
ITAMSAT 1 27 May 14:50:08 14:55:18 84° 255° (WSW) 15:00:33 435.822/435.867
HORYU 2 27 May 14:54:44 14:57:43 18° 64° (ENE) 15:00:50 437.375
ITUPSAT 1 27 May 14:58:11 15:02:58 67° 102° (ESE) 15:07:45 437.325
KKS-1 27 May 15:02:19 15:04:35 14° 89° (E) 15:07:04 437.445
BEESAT 27 May 15:05:33 15:10:21 81° 103° (ESE) 15:15:07 436.000
SPROUT 27 May 15:09:11 15:11:05 12° 298° (WNW) 15:12:48 437.525
O/OREOS (USA 219) 27 May 15:10:53 15:13:43 17° 101° (ESE) 15:16:42 437.305
SWISSCUBE 27 May 15:14:09 15:18:57 78° 285° (WNW) 15:23:44 437.505
Gurwin Techsat 1B 27 May 15:31:27 15:36:26 40° 263° (W) 15:41:26 435.225
Cosmos 2499 27 May 15:43:23 15:51:29 78° 96° (E) 15:59:00 435.465 / 435.565
DANDE 27 May 16:00:18 16:05:46 19° 307° (NW) 16:11:14 436.750
STARS 27 May 16:03:46 16:07:54 38° 97° (E) 16:12:02 437.465
AO-7 27 May 16:07:12 16:15:28 82° 70° (ENE) 16:23:51 29.400- 29.500
JAS-2 27 May 16:11:28 16:18:09 89° 250° (WSW) 16:24:03 435.910
RS-15 27 May 16:29:35 16:40:04 40° 32° (NNE) 16:51:05 29.354- 29.394
HORYU 2 27 May 16:29:39 16:34:02 51° 260° (W) 16:38:25 437.375
ITAMSAT 1 27 May 16:34:40 16:35:45 10° 275° (W) 16:36:28 435.822/435.867
MOZHAYETS 4 27 May 16:35:56 16:37:30 12° 87° (E) 16:39:19
KKS-1 27 May 16:37:16 16:41:42 60° 287° (WNW) 16:46:06 437.445
ITUPSAT 1 27 May 16:37:26 16:40:23 16° 298° (WNW) 16:43:10 437.325
BEESAT 27 May 16:45:13 16:47:36 13° 300° (WNW) 16:49:47 436.000
O/OREOS (USA 219) 27 May 16:48:22 16:52:47 51° 298° (WNW) 16:57:11 437.305
GONETS M04 27 May 16:48:51 16:52:26 12° 311° (NW) 16:55:25
SWISSCUBE 27 May 16:55:05 16:56:04 10° 302° (WNW) 16:56:47 437.505
CUTE-I 27 May 17:09:44 17:12:44 16° 59° (ENE) 17:15:57 437.470
Cubesat XI-IV 27 May 17:29:18 17:33:20 23° 63° (ENE) 17:37:31 437.490
Cosmos 2499 27 May 17:39:29 17:45:31 22° 297° (WNW) 17:51:00 435.465 / 435.565
STARS 27 May 17:40:40 17:44:10 23° 294° (WNW) 17:47:34 437.465
BEESAT 2 27 May 17:49:23 17:52:22 20° 113° (ESE) 17:55:29 435.950
JAS-2 27 May 18:00:31 18:03:59 14° 272° (W) 18:06:55 435.910
AO-7 27 May 18:03:02 18:09:20 22° 271° (W) 18:15:20 29.400- 29.500
MOZHAYETS 4 27 May 18:10:46 18:15:21 74° 285° (WNW) 18:19:54
CUBESAT XI-V 27 May 18:16:36 18:18:01 11° 86° (E) 18:19:42 437.345
YUBILEINY 27 May 18:27:24 18:35:40 46° 72° (ENE) 18:43:59 435.215
Cosmos 2491 27 May 18:35:10 18:41:32 24° 81° (E) 18:48:15 435.465 / 435.565
BEESAT 3 27 May 18:36:15 18:40:18 75° 123° (ESE) 18:44:26 437.485
RS-15 27 May 18:42:15 18:53:54 83° 238° (WSW) 19:06:00 29.354- 29.394
CUTE-I 27 May 18:46:54 18:52:13 81° 255° (WSW) 18:57:35 437.470
BRITE-PL 27 May 19:04:08 19:07:25 18° 60° (ENE) 19:11:02 437.365/2234.400
GOMX 1 27 May 19:04:50 19:06:33 12° 57° (ENE) 19:08:33 467.674
Cubesat XI-IV 27 May 19:07:57 19:13:08 52° 260° (W) 19:18:21 437.490
PRISM 27 May 19:20:11 19:23:17 20° 93° (E) 19:26:29 437.425
AIST 2 27 May 19:20:32 19:24:39 51° 120° (ESE) 19:28:49 435.215
BEESAT 2 27 May 19:26:15 19:30:12 44° 310° (NW) 19:34:12 435.950
HO-68 27 May 19:46:20 19:52:25 32° 60° (ENE) 19:58:38 435.675
STRAND 1 27 May 19:50:01 19:54:50 40° 97° (E) 19:59:41 437.568
CUBESAT XI-V 27 May 19:51:25 19:56:09 80° 283° (WNW) 20:00:51 437.345
DOVE 4 27 May 19:59:15 20:03:14 24° 65° (ENE) 20:07:26 437.250
CANX-2 27 May 20:13:17 20:16:49 26° 68° (ENE) 20:20:24 2200.000
BEESAT 3 27 May 20:16:06 20:18:48 16° 322° (NW) 20:21:27 437.485
CUTE 1.7 + AOD 2 27 May 20:16:45 20:20:15 26° 68° (ENE) 20:23:48 437.475
YUBILEINY 27 May 20:24:29 20:32:28 41° 273° (W) 20:40:19 435.215
Cosmos 2491 27 May 20:28:44 20:37:34 77° 281° (W) 20:46:27 435.465 / 435.565
AIST 1 27 May 20:28:54 20:32:25 26° 90° (E) 20:36:03
Oscar 11 27 May 20:30:19 20:31:17 11° 61° (ENE) 20:32:28 145.826/435.025
CUTE-I 27 May 20:32:39 20:33:18 10° 276° (W) 20:33:34 437.470
SEEDS 27 May 20:37:43 20:41:33 35° 71° (ENE) 20:45:24 437.485
GOMX 1 27 May 20:38:34 20:43:44 73° 75° (ENE) 20:49:12 467.674
BRITE-PL 27 May 20:40:08 20:45:16 75° 259° (WSW) 20:50:50 437.365/2234.400
COMPASS 1 27 May 20:49:36 20:53:28 37° 71° (ENE) 20:57:21 437.405
PRISM 27 May 20:55:03 20:58:52 36° 290° (WNW) 21:02:41 437.425
RS-15 27 May 20:56:28 21:04:57 22° 258° (WSW) 21:12:58 29.354- 29.394
AIST 2 27 May 21:00:05 21:03:31 22° 319° (NW) 21:06:54 435.215
AAUSAT CUBESAT 2 27 May 21:00:57 21:04:53 43° 72° (ENE) 21:08:51 437.432
UWE-3 27 May 21:04:28 21:07:46 20° 65° (ENE) 21:11:10 435.000/436.395/437.385
Cosmos 2504 27 May 21:06:41 21:13:33 45° 73° (ENE) 21:20:26 435.465 / 435.565
CINEMA 3 27 May 21:07:40 21:12:27 48° 71° (ENE) 21:17:19 145.822/145.860
M-CUBED/EXP-1 PRIME 27 May 21:11:34 21:14:52 63° 291° (WNW) 21:18:08 437.505
FUNcube-1 27 May 21:12:33 21:15:36 18° 65° (ENE) 21:18:46 145.935
AUBIESAT-1 27 May 21:18:57 21:22:13 59° 291° (WNW) 21:25:29 437.475
DELFI C3 27 May 21:23:19 21:26:37 25° 69° (ENE) 21:29:58 145.870
STRAND 1 27 May 21:29:33 21:33:54 28° 295° (WNW) 21:38:10 437.568
CUBESAT XI-V 27 May 21:32:01 21:32:52 10° 301° (WNW) 21:33:28 437.345
HO-68 27 May 21:32:48 21:39:52 57° 259° (W) 21:46:55 435.675
DOVE 4 27 May 21:35:37 21:40:38 51° 262° (W) 21:45:50 437.250
HUMSAT D 27 May 21:41:03 21:43:40 16° 65° (ENE) 21:46:24 437.325/437.525
CANX-2 27 May 21:48:54 21:52:40 29° 265° (W) 21:56:24 2200.000
ZACube-1 27 May 21:51:57 21:56:18 44° 71° (ENE) 22:00:40 437.345
CUTE 1.7 + AOD 2 27 May 21:52:18 21:56:05 30° 265° (W) 21:59:50 437.475
UKube-1 27 May 21:53:12 21:56:30 22° 65° (ENE) 21:59:53 .
CUBEBUG 2 27 May 21:53:38 21:58:23 71° 75° (ENE) 22:03:09 437.445
Oscar 11 27 May 22:02:31 22:06:52 86° 256° (WSW) 22:11:14 145.826/435.025
DX 1 27 May 22:02:43 22:06:27 29° 68° (ENE) 22:10:16 434.975-435.025
AIST 1 27 May 22:06:22 22:10:02 27° 288° (WNW) 22:13:42
